Columbia, MO

9:03 PM CDT on April 27, 2017 (GMT -0500)
Columbia Regional

Weather History for KCOU - March, 2015

Change the Weather History Date:

Monday, March 2, 2015

  Actual Average Record
Temperature  
Mean Temperature 25 °F 40 °F  
Max Temperature 36 °F 50 °F 78 °F (1976)
Min Temperature 14 °F 30 °F -5 °F (1890)
Degree Days  
Heating Degree Days 40 26  
Month to date heating degree days 81 52  
Since 1 July heating degree days 4136 3998  
Cooling Degree Days 0 0  
Month to date cooling degree days 0 0  
Year to date cooling degree days 0 0  
Moisture  
Dew Point 18 °F    
Average Humidity 74    
Maximum Humidity 100    
Minimum Humidity 47    
Precipitation  
Precipitation T in 0.09 in 0.92 in (1940)
Month to date precipitation 0.07 0.17  
Year to date precipitation 2.42 4.34  
Snow  
Snow T in 0.10 in 7.20 in (1960)
Month to date snowfall 1.0 0.2  
Since 1 July snowfall 11.4 16.3  
Snow Depth 3.00 in    
Sea Level Pressure  
Sea Level Pressure 30.43 in    
Wind  
Wind Speed 8 mph (SE)    
Max Wind Speed 18 mph    
Max Gust Speed 22 mph    
Visibility 6 miles    
Events Fog    
T = Trace of Precipitation, MM = Missing Value Source: NWS Daily Summary

Daily Weather History Graph

Daily Weather History Graph

Search for Another Location

Airport or City:

Trip Planner

Search our weather history database for the weather conditions in past years. The results will help you decide how hot, cold, wet, or windy it might be!

Date:

Astronomy

Mar. 02, 2015 Rise Set
Actual Time 6:40 AM CST 6:02 PM CST
Civil Twilight 6:13 AM CST 6:29 PM CST
Nautical Twilight 5:42 AM CST 7:00 PM CST
Astronomical Twilight 5:11 AM CST 7:30 PM CST
Moon 3:33 PM CST (3/2) 4:42 AM CST (3/2)
Length of Visible Light 12h 15m
Length of Day
11h 22m
Waxing Gibbous, 92% of the Moon is Illuminated
Mar 2
Waxing Gibbous
Mar 5
Full
Mar 13
Last Quarter
Mar 20
New
Mar 27
First Quarter

Hourly Weather History & Observations

Time (CST) Temp. Windchill Dew Point Humidity Pressure Visibility Wind Dir Wind Speed Gust Speed Precip Events Conditions
12:54 AM 19.9 °F 13.4 °F 18.0 °F 92% 30.54 in 6.0 mi WNW 4.6 mph - N/A   Clear
1:54 AM 18.0 °F 11.1 °F 16.0 °F 92% 30.54 in 4.0 mi NW 4.6 mph - N/A   Clear
2:54 AM 19.4 °F 14.3 °F 17.6 °F 93% 30.50 in 4.0 mi West 3.5 mph - N/A   Clear
3:21 AM 18.0 °F - 16.0 °F 92% 30.49 in 1.8 mi Calm Calm - N/A   Clear
3:30 AM 19.0 °F - 16.0 °F 88% 30.49 in 3.0 mi Calm Calm - N/A   Clear
3:54 AM 18.0 °F 11.1 °F 17.1 °F 96% 30.53 in 3.0 mi NW 4.6 mph - N/A   Clear
4:05 AM 17.6 °F 10.7 °F 15.8 °F 93% 30.49 in 2.5 mi NW 4.6 mph - N/A   Clear
4:25 AM 18.0 °F 12.7 °F 16.0 °F 92% 30.49 in 3.0 mi NW 3.5 mph - N/A   Clear
4:54 AM 19.9 °F 14.9 °F 17.1 °F 89% 30.54 in 2.5 mi WNW 3.5 mph - N/A   Clear
5:06 AM 19.9 °F 14.9 °F 16.0 °F 85% 30.51 in 3.0 mi WNW 3.5 mph - N/A   Clear
5:13 AM 19.9 °F 14.9 °F 16.0 °F 85% 30.51 in 1.8 mi WNW 3.5 mph - N/A   Clear
5:26 AM 15.1 °F 9.4 °F 12.0 °F 88% 30.51 in 0.5 mi SW 3.5 mph - N/A Fog Light Freezing Fog
5:33 AM 15.1 °F 9.4 °F 12.0 °F 88% 30.51 in 0.2 mi WSW 3.5 mph - N/A Fog Light Freezing Fog
5:54 AM 18.0 °F - 14.0 °F 84% 30.54 in 0.2 mi Calm Calm - N/A Fog Light Freezing Fog
6:10 AM 19.0 °F 13.9 °F 16.0 °F 88% 30.50 in 1.0 mi SSE 3.5 mph - N/A   Mist
6:18 AM 19.9 °F - 17.1 °F 89% 30.51 in 1.8 mi Calm Calm - N/A   Clear
6:54 AM 19.9 °F - 17.1 °F 89% 30.54 in 1.2 mi Calm Calm - N/A   Clear
7:54 AM 19.9 °F 13.4 °F 16.0 °F 85% 30.56 in 2.0 mi SE 4.6 mph - N/A   Clear
8:14 AM 21.0 °F 14.6 °F 17.1 °F 85% 30.52 in 3.0 mi SE 4.6 mph - N/A   Clear
8:21 AM 21.0 °F - 18.0 °F 88% 30.52 in 2.5 mi Calm Calm - N/A   Clear
8:38 AM 24.1 °F 19.7 °F 19.9 °F 84% 30.52 in 3.0 mi East 3.5 mph - N/A   Clear
8:54 AM 23.0 °F 15.8 °F 19.0 °F 85% 30.56 in 7.0 mi East 5.8 mph - N/A   Clear
9:54 AM 27.0 °F 19.5 °F 21.9 °F 81% 30.55 in 9.0 mi East 6.9 mph - N/A   Clear
10:54 AM 32.0 °F 24.2 °F 18.0 °F 56% 30.52 in 10.0 mi ESE 9.2 mph - N/A   Clear
11:54 AM 34.0 °F 25.0 °F 17.1 °F 50% 30.51 in 10.0 mi SE 12.7 mph - N/A   Clear
12:54 PM 35.1 °F 28.6 °F 19.0 °F 52% 30.47 in 10.0 mi East 8.1 mph - N/A   Clear
1:54 PM 35.1 °F 26.9 °F 18.0 °F 50% 30.40 in 10.0 mi East 11.5 mph - N/A   Clear
2:54 PM 36.0 °F 29.0 °F 18.0 °F 48% 30.39 in 10.0 mi ESE 9.2 mph - N/A   Clear
3:54 PM 35.6 °F 26.6 °F 17.6 °F 48% 30.32 in 10.0 mi ESE 13.8 mph - N/A   Clear
4:54 PM 35.1 °F 26.9 °F 19.0 °F 52% 30.33 in 10.0 mi ESE 11.5 mph - N/A   Clear
5:54 PM 34.0 °F 26.0 °F 19.0 °F 54% 30.29 in 10.0 mi ESE 10.4 mph - N/A   Scattered Clouds
6:54 PM 33.1 °F 26.9 °F 19.9 °F 59% 30.27 in 10.0 mi ESE 6.9 mph - N/A   Overcast
7:54 PM 33.1 °F 24.9 °F 19.0 °F 56% 30.24 in 10.0 mi ESE 10.4 mph - N/A   Overcast
8:54 PM 33.1 °F 23.9 °F 19.9 °F 59% 30.21 in 10.0 mi SE 12.7 mph - N/A   Overcast
9:54 PM 32.0 °F 22.1 °F 21.0 °F 64% 30.18 in 10.0 mi SE 13.8 mph - 0.00 in   Overcast
10:54 PM 32.0 °F 22.5 °F 21.0 °F 64% 30.11 in 10.0 mi SE 12.7 mph - 0.00 in   Overcast
11:54 PM 32.0 °F 23.6 °F 21.9 °F 66% 30.09 in 10.0 mi SE 10.4 mph - 0.00 in   Overcast